Wind_Speed
51 50 49 48 47 47 47 47 47 46 45 45 45 44 44 43 42 41 41 41 40 40 39 39 39 38 38 38 38 38 38 38 38 38 39 39 38 37
50 49 49 48 47 47 47 46 46 46 45 44 43 43 42 41 41 41 41 41 40 40 40 39 39 39 38 38 38 38 39 39 39 39 39 39 39 39
49 48 47 47 47 47 47 47 46 45 44 43 42 42 41 40 40 41 41 40 40 40 40 40 39 39 39 39 39 39 40 40 40 40 40 41 41 42
48 48 48 48 47 46 46 46 45 44 43 41 41 40 40 40 40 41 40 40 40 40 40 40 40 40 41 41 40 40 41 41 41 41 42 42 43 44
48 48 47 47 46 45 45 44 43 42 41 40 39 39 39 40 40 40 40 40 40 40 40 41 41 41 41 41 41 41 42 42 42 43 43 44 44 45
46 45 45 44 44 43 43 42 41 40 39 39 39 39 39 39 39 39 40 40 40 40 41 41 41 41 42 42 42 42 42 42 42 43 43 43 44 45
44 43 43 42 42 41 40 39 39 38 38 38 39 38 39 39 39 39 39 40 40 41 41 41 42 42 42 42 42 42 43 43 43 44 44 44 45 46
42 42 41 40 40 39 38 38 38 38 38 38 38 38 39 39 39 39 39 40 40 40 41 42 42 42 42 43 43 43 43 43 44 45 45 46 46 47
41 40 39 39 38 38 37 37 37 37 38 38 38 38 38 38 39 39 40 40 41 41 41 42 43 43 44 44 45 45 45 45 45 46 47 47 47 47
38 38 37 37 37 36 36 36 36 37 37 37 38 38 38 39 39 39 40 41 41 41 42 43 44 44 45 45 46 46 47 47 47 47 47 48 48 47
36 36 36 36 35 35 35 35 36 37 37 37 38 38 38 39 39 40 40 41 41 42 43 44 44 44 45 45 46 47 47 48 48 48 48 48 47 47
35 35 34 34 34 34 34 35 36 36 36 37 37 38 38 39 40 41 41 42 42 43 44 44 44 44 44 45 47 47 48 48 48 48 47 47 46 46
33 33 33 33 33 34 35 35 35 36 36 37 37 38 39 40 40 41 42 42 43 44 44 44 44 45 45 45 47 48 49 49 49 48 47 46 45 45
32 32 32 33 33 34 34 34 35 35 36 37 37 38 39 40 41 41 42 43 44 44 45 45 45 45 46 46 46 48 49 49 49 48 46 45 44 43
31 32 32 33 33 34 34 34 35 35 36 37 38 39 40 41 42 42 42 43 44 45 45 46 46 46 47 47 46 47 48 48 48 46 45 43 43 42
32 32 32 33 33 33 34 35 35 36 37 38 39 40 41 41 42 42 43 44 45 46 46 46 46 46 46 46 47 47 47 46 45 45 44 42 41 40
31 32 32 32 33 34 34 35 36 37 38 39 40 41 41 42 43 43 44 45 45 45 46 46 46 46 46 46 46 46 46 45 45 44 42 40 40 39
31 31 32 33 33 34 35 36 37 38 39 40 41 42 42 43 44 44 45 45 45 45 45 46 46 46 46 46 47 46 45 45 44 42 40 38 38 39
31 32 32 33 34 35 36 37 38 39 40 41 42 43 43 44 44 45 45 45 45 45 46 46 47 47 46 45 45 46 46 44 43 41 40 38 37 38
31 32 32 33 34 35 37 38 39 40 41 42 43 43 44 44 45 45 45 45 45 45 46 47 47 47 45 45 44 45 46 45 43 41 40 39 37 37
32 33 33 34 36 37 38 39 40 41 42 43 44 44 45 45 45 45 45 45 45 46 46 47 47 47 47 46 45 44 45 45 43 41 39 38 37 36
33 34 35 36 37 38 39 40 42 43 43 44 44 45 45 45 45 45 45 45 46 46 46 46 47 48 48 47 46 44 43 43 43 41 39 38 36 34
34 35 37 38 39 39 40 42 42 43 44 44 45 45 45 46 46 46 46 46 46 46 46 47 47 48 48 47 45 43 42 42 41 40 39 39 36 34
Wind_Direction
276 278 280 282 283 284 285 286 287 288 289 289 289 289 289 290 291 291 292 292 291 291 292 292 292 292 292 292 291 289 287 285 284 282 280 279 278 275
277 278 280 281 282 283 284 285 286 288 288 288 288 288 288 289 290 291 292 292 291 291 292 292 292 291 291 291 291 290 288 286 285 283 281 280 277 275
277 278 280 281 282 283 284 284 285 286 287 287 287 288 288 289 290 291 292 292 291 292 292 292 291 291 291 290 290 289 287 286 285 283 281 279 278 276
276 278 279 281 281 282 283 283 284 285 286 286 287 287 288 289 290 291 292 292 292 293 292 292 291 291 291 290 290 288 287 286 285 283 281 280 279 277
276 277 279 279 280 281 282 283 283 284 285 285 286 287 288 289 291 292 292 293 293 293 293 292 292 291 291 290 290 289 288 286 285 283 282 281 280 279
276 277 278 279 280 281 281 281 282 283 284 285 286 288 288 289 291 292 293 293 293 293 293 292 292 292 292 291 290 289 288 287 287 285 284 283 281 279
275 277 278 279 279 279 280 280 281 283 284 285 287 288 289 290 291 292 293 294 294 294 294 293 293 293 293 291 291 291 290 288 287 287 286 284 282 280
275 276 277 277 278 278 279 280 281 283 284 286 287 288 289 290 291 292 294 294 295 295 295 294 294 294 293 292 292 292 291 290 289 288 287 285 284 281
274 274 275 276 277 277 278 280 281 283 285 286 287 288 290 290 292 293 294 295 295 296 296 296 296 295 294 293 292 292 291 290 289 288 287 286 285 283
271 273 274 275 276 277 279 280 282 284 286 286 287 289 290 291 292 294 295 295 296 296 297 298 298 296 295 294 293 293 292 292 291 289 288 287 285 283
271 272 273 274 276 277 279 281 283 285 285 287 288 290 291 292 293 295 295 295 296 297 298 299 299 298 298 297 296 295 295 294 293 291 289 287 285 282
271 272 273 274 276 278 280 283 284 286 287 288 289 290 291 292 294 296 296 296 297 298 299 299 300 299 299 298 297 297 296 296 295 293 291 289 285 283
271 272 273 275 277 279 281 283 285 287 288 289 290 292 293 294 295 297 297 298 298 299 300 300 300 300 300 299 298 297 297 297 296 295 293 290 287 284
271 272 274 276 278 280 282 284 286 288 289 290 292 293 294 296 297 298 299 299 300 300 301 301 301 301 301 300 299 298 298 297 297 296 294 291 289 286
272 273 275 278 279 281 283 285 287 289 291 292 293 295 296 297 298 299 300 301 301 301 301 302 302 302 302 301 300 299 299 298 297 296 295 293 290 287
273 275 277 278 280 282 284 286 288 290 292 294 295 296 297 298 298 299 301 302 302 302 302 303 303 304 304 303 302 301 300 299 298 297 295 293 291 288
275 277 278 280 281 284 286 287 289 291 293 295 296 297 298 298 299 300 301 303 303 303 303 303 304 305 305 305 303 302 301 300 299 298 295 293 291 289
277 278 279 281 283 285 287 289 291 292 294 296 296 297 298 299 299 300 302 303 303 303 303 304 305 306 306 306 305 303 302 302 300 298 295 293 291 289
278 280 281 283 285 287 288 290 292 294 295 296 297 297 298 299 300 300 301 302 303 303 304 304 306 306 306 306 305 303 302 302 301 299 296 294 291 290
280 281 283 285 286 288 289 291 293 294 295 296 297 297 298 299 300 300 301 301 302 303 304 305 306 307 307 307 306 303 302 301 300 299 297 295 292 289
280 282 284 286 288 289 291 292 294 295 296 297 297 297 298 299 300 300 300 301 302 303 305 306 306 307 307 307 306 304 301 301 300 299 297 295 293 290
282 283 285 287 289 290 292 293 295 296 297 297 297 298 298 299 299 299 299 301 302 303 304 305 306 307 306 307 306 304 301 300 300 300 299 296 294 291
283 285 286 288 289 291 292 294 295 296 297 297 298 298 298 299 299 299 300 301 302 302 303 305 306 306 306 306 306 304 301 300 300 300 299 298 296 291
Height
5756 5755 5753 5751 5749 5746 5744 5741 5739 5736 5734 5730 5727 5723 5720 5717 5713 5710 5707 5704 5701 5698 5695 5692 5689 5686 5683 5680 5677 5674 5671 5669 5667 5665 5664 5663 5662 5661
5745 5743 5742 5740 5738 5736 5733 5730 5727 5725 5723 5720 5716 5713 5710 5706 5703 5700 5697 5694 5691 5688 5685 5681 5678 5675 5672 5669 5666 5663 5660 5658 5656 5654 5653 5652 5651 5650
5733 5732 5731 5729 5727 5724 5722 5719 5717 5714 5711 5709 5706 5702 5699 5696 5693 5690 5687 5683 5680 5677 5674 5670 5667 5664 5661 5658 5655 5652 5649 5647 5645 5643 5641 5640 5639 5638
5722 5721 5719 5717 5716 5713 5711 5708 5706 5703 5701 5698 5695 5692 5689 5686 5683 5680 5676 5673 5670 5666 5663 5660 5656 5653 5650 5647 5644 5641 5638 5635 5633 5631 5629 5627 5626 5624
5710 5709 5708 5706 5704 5702 5700 5697 5695 5692 5690 5688 5685 5682 5679 5676 5673 5670 5666 5662 5659 5655 5652 5649 5645 5642 5638 5635 5632 5629 5626 5623 5621 5618 5616 5614 5612 5610
5699 5698 5696 5695 5693 5691 5689 5686 5684 5682 5680 5677 5675 5672 5669 5666 5662 5659 5656 5652 5648 5645 5641 5637 5634 5630 5627 5623 5620 5616 5613 5610 5608 5605 5603 5600 5598 5596
5688 5687 5685 5684 5682 5680 5678 5676 5674 5672 5669 5667 5665 5662 5659 5655 5652 5649 5645 5642 5638 5634 5630 5626 5622 5619 5615 5611 5607 5604 5600 5597 5594 5592 5589 5586 5584 5581
5677 5675 5674 5673 5671 5669 5668 5666 5664 5662 5659 5657 5654 5651 5648 5645 5642 5638 5635 5631 5627 5623 5619 5614 5611 5606 5602 5598 5594 5591 5587 5584 5581 5578 5575 5572 5569 5566
5666 5665 5664 5662 5661 5659 5658 5656 5654 5651 5649 5647 5644 5641 5638 5635 5631 5628 5624 5620 5616 5611 5607 5603 5598 5594 5589 5585 5581 5577 5574 5570 5567 5563 5560 5557 5553 5551
5655 5654 5653 5652 5651 5649 5648 5646 5644 5641 5639 5636 5634 5631 5627 5624 5620 5617 5612 5608 5604 5600 5595 5591 5585 5581 5576 5571 5567 5563 5559 5556 5552 5549 5545 5541 5538 5535
5645 5644 5643 5642 5641 5639 5638 5636 5634 5631 5629 5626 5623 5620 5617 5613 5609 5606 5601 5597 5593 5588 5583 5579 5573 5568 5563 5558 5553 5549 5545 5541 5537 5533 5529 5526 5522 5519
5635 5635 5634 5632 5631 5629 5628 5626 5624 5621 5619 5616 5613 5610 5606 5602 5598 5594 5590 5586 5581 5576 5571 5566 5561 5556 5551 5545 5539 5534 5530 5526 5522 5518 5514 5510 5506 5503
5626 5625 5624 5623 5622 5620 5618 5616 5614 5611 5608 5606 5602 5599 5595 5591 5587 5583 5578 5574 5569 5564 5559 5554 5548 5543 5538 5533 5527 5520 5515 5511 5506 5502 5498 5494 5491 5487
5617 5616 5615 5614 5612 5610 5608 5606 5604 5601 5598 5595 5592 5588 5584 5580 5576 5571 5566 5561 5556 5551 5546 5541 5536 5531 5525 5520 5514 5507 5501 5496 5491 5487 5483 5479 5475 5472
5608 5607 5606 5604 5603 5601 5599 5596 5594 5591 5588 5585 5581 5577 5573 5569 5564 5560 5555 5549 5544 5538 5533 5528 5523 5517 5512 5506 5500 5494 5488 5482 5476 5472 5468 5464 5460 5457
5598 5597 5596 5595 5593 5591 5589 5587 5584 5581 5578 5574 5570 5566 5562 5557 5553 5548 5543 5537 5532 5526 5520 5515 5509 5504 5498 5492 5486 5480 5474 5469 5464 5458 5454 5450 5446 5443
5589 5588 5587 5585 5584 5582 5579 5577 5574 5570 5567 5563 5559 5555 5550 5546 5541 5536 5531 5525 5520 5514 5508 5502 5497 5491 5485 5479 5473 5466 5461 5455 5450 5446 5441 5437 5433 5430
5580 5579 5577 5576 5574 5572 5569 5566 5563 5560 5556 5552 5548 5543 5539 5534 5529 5524 5519 5513 5507 5502 5496 5490 5484 5479 5473 5466 5459 5453 5447 5442 5437 5432 5428 5425 5421 5417
5571 5570 5568 5566 5564 5561 5559 5556 5552 5549 5545 5541 5536 5532 5527 5522 5517 5512 5506 5501 5495 5489 5483 5477 5472 5466 5460 5455 5448 5439 5434 5429 5424 5419 5415 5412 5409 5405
5562 5560 5558 5556 5554 5551 5548 5545 5541 5537 5533 5529 5524 5519 5515 5510 5504 5499 5494 5488 5483 5477 5471 5465 5459 5453 5447 5442 5436 5428 5420 5416 5411 5407 5403 5400 5397 5393
5552 5550 5548 5546 5543 5540 5537 5533 5530 5525 5521 5517 5512 5507 5502 5497 5492 5486 5481 5476 5470 5465 5459 5452 5446 5440 5434 5429 5423 5417 5409 5402 5398 5395 5391 5387 5384 5381
5542 5540 5538 5535 5532 5529 5525 5522 5518 5513 5509 5504 5499 5494 5489 5484 5479 5473 5468 5463 5457 5452 5446 5440 5433 5427 5421 5415 5410 5404 5397 5391 5386 5382 5378 5374 5371 5369
5532 5529 5527 5524 5521 5517 5514 5510 5506 5501 5496 5492 5487 5481 5476 5471 5466 5460 5455 5450 5444 5439 5433 5427 5421 5414 5407 5401 5396 5390 5385 5379 5374 5370 5366 5361 5359 5357